IRIDIUM 132

Last updated on Sun Jun 21 2026 00:03:14 GMT+0000 (Coordinated Universal Time)

1 42961U 17061G 26171.29165079 .00000074 00000+0 19333-4 0 9996 2 42961 86.3966 23.9523 0002143 85.6776 274.4665 14.34218268455260
UTC large
Height (km)
Speed (km/s)
/
Latitude / Longitude
Inclination (degrees)
Orbital Period (minutes)
Azimuth
Elevation
Range (km)
Doppler Factor

Next 0 passes for location: London (51.5072 / 0.1276)

No passes found over London.
IRIDIUM 132